Weather History for Big Bear City, CA

Change the Weather History Date:

Sunday, May 20, 2012

  Actual Average (KBUO) Record (KBUO)
Temperature  
Mean Temperature 53 °F -  
Max Temperature 73 °F 76 °F 89 °F (2000)
Min Temperature 33 °F 51 °F 42 °F (1998)
Degree Days  
Heating Degree Days 12    
Growing Degree Days 3 (Base 50)    
Moisture  
Dew Point 24 °F    
Average Humidity 36    
Maximum Humidity 65    
Minimum Humidity 12    
Precipitation  
Precipitation 0.00 in - - ()
Sea Level Pressure  
Sea Level Pressure 30.22 in    
Wind  
Wind Speed 3 mph (NNE)    
Max Wind Speed 13 mph    
Max Gust Speed 22 mph    
Visibility 10 miles    
Events      
Averages and records for this station are not official NWS values.
T = Trace of Precipitation, MM = Missing Value Source: NWS Daily Summary

Daily Weather History Graph

Daily Weather History Graph

Search for Another Location

Airport:

Trip Planner

Search our weather history database for the weather conditions in past years. The results will help you decide how hot, cold, wet, or windy it might be!

Date:

Astronomy

May. 20, 2012 Rise Set
Actual Time 5:41 AM PDT 7:46 PM PDT
Civil Twilight 5:13 AM PDT 8:14 PM PDT
Nautical Twilight 4:39 AM PDT 8:49 PM PDT
Astronomical Twilight 4:02 AM PDT 9:26 PM PDT
Moon 5:24 AM PDT 7:49 PM PDT
Length of Visible Light 15h 01m
Length of Day
14h 04m
Waning Crescent, 0% of the Moon is Illuminated
May 20
Waning Crescent
May 20
New
May 28
First Quarter
Jun 4
Full
Jun 11
Last Quarter

Hourly Weather History & Observations

Time (PDT) Temp. Dew Point Humidity Pressure Visibility Wind Dir Wind Speed Gust Speed Precip Events Conditions
12:15 AM 41.0 °F 26.6 °F 57% 30.20 in 10.0 mi Calm Calm - N/A   Clear
12:35 AM 41.0 °F 26.6 °F 57% 30.21 in 10.0 mi Calm Calm - N/A   Clear
12:55 AM 39.2 °F 26.6 °F 61% 30.20 in 10.0 mi Calm Calm - N/A   Clear
1:15 AM 39.2 °F 26.6 °F 61% 30.20 in 10.0 mi Calm Calm - N/A   Clear
1:35 AM 37.4 °F 24.8 °F 60% 30.20 in 10.0 mi Calm Calm - N/A   Clear
1:55 AM 37.4 °F 24.8 °F 60% 30.19 in 10.0 mi Calm Calm - N/A   Clear
2:15 AM 37.4 °F 24.8 °F 60% 30.19 in 10.0 mi Calm Calm - N/A   Clear
2:35 AM 37.4 °F 24.8 °F 60% 30.19 in 10.0 mi Calm Calm - N/A   Clear
3:15 AM 35.6 °F 24.8 °F 65% 30.19 in 10.0 mi Calm Calm - N/A   Clear
3:35 AM 35.6 °F 24.8 °F 65% 30.19 in 10.0 mi Calm Calm - N/A   Clear
3:55 AM 35.6 °F 23.0 °F 60% 30.19 in 10.0 mi Calm Calm - N/A   Clear
4:15 AM 35.6 °F 23.0 °F 60% 30.19 in 10.0 mi Calm Calm - N/A   Clear
4:35 AM 35.6 °F 23.0 °F 60% 30.19 in 10.0 mi Calm Calm - N/A   Clear
4:55 AM 35.6 °F 23.0 °F 60% 30.19 in 10.0 mi Calm Calm - N/A   Clear
5:15 AM 33.8 °F 23.0 °F 65% 30.19 in 10.0 mi Calm Calm - N/A   Clear
5:35 AM 33.8 °F 23.0 °F 65% 30.20 in 10.0 mi Calm Calm - N/A   Clear
5:55 AM 33.8 °F 23.0 °F 65% 30.20 in 10.0 mi Calm Calm - N/A   Clear
6:15 AM 33.8 °F 23.0 °F 65% 30.20 in 10.0 mi Calm Calm - N/A   Clear
6:35 AM 35.6 °F 24.8 °F 65% 30.21 in 10.0 mi Calm Calm - N/A   Clear
7:15 AM 44.6 °F 32.0 °F 61% 30.22 in 10.0 mi Calm Calm - N/A   Clear
7:35 AM 46.4 °F 32.0 °F 57% 30.22 in 10.0 mi Calm Calm - N/A   Clear
7:55 AM 51.8 °F 32.0 °F 47% 30.22 in 10.0 mi Calm Calm - N/A   Clear
8:15 AM 55.4 °F 30.2 °F 38% 30.23 in 10.0 mi Calm Calm - N/A   Clear
8:35 AM 59.0 °F 24.8 °F 27% 30.23 in 10.0 mi Calm Calm - N/A   Clear
8:55 AM 62.6 °F 23.0 °F 22% 30.23 in 10.0 mi NE 4.6 mph - N/A   Clear
9:15 AM 66.2 °F 19.4 °F 17% 30.23 in 10.0 mi NE 5.8 mph - N/A   Clear
9:35 AM 66.2 °F 19.4 °F 17% 30.23 in 10.0 mi ENE 9.2 mph - N/A   Clear
9:55 AM 68.0 °F 19.4 °F 16% 30.23 in 10.0 mi ENE 10.4 mph 16.1 mph N/A   Clear
10:15 AM 68.0 °F 19.4 °F 16% 30.23 in 10.0 mi ENE 10.4 mph 18.4 mph N/A   Clear
10:35 AM 69.8 °F 19.4 °F 15% 30.23 in 10.0 mi NE 9.2 mph 17.3 mph N/A   Clear
10:55 AM 69.8 °F 19.4 °F 15% 30.24 in 10.0 mi NE 9.2 mph - N/A   Clear
11:15 AM 69.8 °F 17.6 °F 14% 30.23 in 10.0 mi ENE 12.7 mph 16.1 mph N/A   Clear
11:35 AM 69.8 °F 19.4 °F 15% 30.24 in 10.0 mi North 8.1 mph 17.3 mph N/A   Clear
11:55 AM 69.8 °F 19.4 °F 15% 30.24 in 10.0 mi North 9.2 mph 16.1 mph N/A   Clear
12:15 PM 71.6 °F 17.6 °F 13% 30.24 in 10.0 mi NNE 8.1 mph 17.3 mph N/A   Clear
12:35 PM 71.6 °F 17.6 °F 13% 30.23 in 10.0 mi NE 8.1 mph 16.1 mph N/A   Clear
12:55 PM 71.6 °F 19.4 °F 14% 30.23 in 10.0 mi NNW 6.9 mph - N/A   Clear
1:15 PM 71.6 °F 17.6 °F 13% 30.23 in 10.0 mi NE 4.6 mph 11.5 mph N/A   Clear
1:35 PM 73.4 °F 21.2 °F 14% 30.23 in 10.0 mi SW 6.9 mph 17.3 mph N/A   Clear
1:55 PM 73.4 °F 17.6 °F 12% 30.23 in 10.0 mi NNW 12.7 mph 21.9 mph N/A   Clear
2:15 PM 73.4 °F 17.6 °F 12% 30.23 in 10.0 mi North 6.9 mph 16.1 mph N/A   Clear
2:35 PM 73.4 °F 19.4 °F 13% 30.23 in 10.0 mi NNE 8.1 mph 16.1 mph N/A   Clear
2:55 PM 73.4 °F 19.4 °F 13% 30.23 in 10.0 mi NE 8.1 mph - N/A   Clear
3:15 PM 73.4 °F 19.4 °F 13% 30.22 in 10.0 mi NE 11.5 mph 16.1 mph N/A   Clear
3:35 PM 73.4 °F 19.4 °F 13% 30.21 in 10.0 mi NE 9.2 mph 17.3 mph N/A   Clear
3:55 PM 73.4 °F 17.6 °F 12% 30.21 in 10.0 mi NNE 8.1 mph 17.3 mph N/A   Clear
4:15 PM 73.4 °F 17.6 °F 12% 30.21 in 10.0 mi ENE 8.1 mph 16.1 mph N/A   Clear
4:35 PM 73.4 °F 17.6 °F 12% 30.21 in 10.0 mi NNW 5.8 mph - N/A   Clear
4:55 PM 73.4 °F 17.6 °F 12% 30.20 in 10.0 mi NNE 6.9 mph - N/A   Clear
5:15 PM 73.4 °F 17.6 °F 12% 30.21 in 10.0 mi NE 10.4 mph - N/A   Clear
5:35 PM 73.4 °F 17.6 °F 12% 30.21 in 10.0 mi North 4.6 mph - N/A   Clear
5:55 PM 71.6 °F 17.6 °F 13% 30.21 in 10.0 mi NNW 6.9 mph - N/A   Clear
6:15 PM 68.0 °F 33.8 °F 28% 30.21 in 10.0 mi West 8.1 mph - N/A   Clear
6:35 PM 68.0 °F 32.0 °F 26% 30.21 in 10.0 mi WSW 5.8 mph - N/A   Clear
6:55 PM 64.4 °F 32.0 °F 30% 30.21 in 10.0 mi WSW 5.8 mph - N/A   Clear
7:15 PM 64.4 °F 32.0 °F 30% 30.22 in 10.0 mi West 5.8 mph - N/A   Clear
7:35 PM 62.6 °F 32.0 °F 32% 30.22 in 10.0 mi WSW 3.5 mph - N/A   Clear
7:55 PM 60.8 °F 32.0 °F 34% 30.23 in 10.0 mi Calm Calm - N/A   Clear
8:15 PM 57.2 °F 32.0 °F 38% 30.23 in 10.0 mi Calm Calm - N/A   Clear
8:35 PM 55.4 °F 32.0 °F 41% 30.23 in 10.0 mi Calm Calm - N/A   Clear
8:55 PM 53.6 °F 32.0 °F 44% 30.24 in 10.0 mi Calm Calm - N/A   Clear
9:15 PM 53.6 °F 32.0 °F 44% 30.25 in 10.0 mi Calm Calm - N/A   Clear
9:35 PM 51.8 °F 32.0 °F 47% 30.25 in 10.0 mi Calm Calm - N/A   Clear
9:55 PM 50.0 °F 30.2 °F 47% 30.26 in 10.0 mi Calm Calm - N/A   Clear
10:15 PM 50.0 °F 32.0 °F 50% 30.27 in 10.0 mi Calm Calm - N/A   Clear
10:35 PM 46.4 °F 30.2 °F 53% 30.27 in 10.0 mi Calm Calm - N/A   Clear
10:55 PM 46.4 °F 30.2 °F 53% 30.27 in 10.0 mi Calm Calm - N/A   Clear
11:15 PM 46.4 °F 30.2 °F 53% 30.27 in 10.0 mi Calm Calm - N/A   Clear
11:35 PM 44.6 °F 30.2 °F 57% 30.28 in 10.0 mi Calm Calm - N/A   Clear
11:55 PM 44.6 °F 30.2 °F 57% 30.27 in 10.0 mi Calm Calm - N/A   Clear